Regional Weather Roundup
Issued by NWS Cleveland, OH

Home | Current Version | Previous Version | Text Only | Print | Product List | Glossary On
Versions: 1 2 3 4 5 6 7 8 9 10 11 12 13 14 15 16 17 18 19 20 21 22 23 24 25 26 27 28 29 30 31 32 33 34 35 36 37 38 39 40 41 42 43 44 45 46 47 48 49 50
000
ASUS41 KCLE 071712
RWRCLE
OHIO REGIONAL WEATHER ROUNDUP
NATIONAL WEATHER SERVICE WILMINGTON, OH
100 PM EDT THU JUL 07 2022

NOTE: "FAIR" INDICATES FEW OR NO CLOUDS BELOW 12,000 FEET WITH NO
SIGNIFICANT WEATHER AND/OR OBSTRUCTIONS TO VISIBILITY.

OHZ001>008-015>018-024>027-034-035-043-044-071800-
   NORTHWEST OHIO

CITY           SKY/WX    TMP DP  RH WIND       PRES   REMARKS
DEFIANCE       FAIR      80  66  62 CALM      30.06S
FINDLAY        FAIR      81  65  58 VRB5      30.05S
TOLEDO EXPRESS FAIR      83  62  49 SE5       30.05S
TOLEDO EXEC    FAIR      79  64  60 VRB3      30.06S
LIMA           FAIR      80  64  58 NE8       30.06S
$$

OHZ009>014-019>023-028>033-038-089-071800-
   NORTHEAST OHIO

CITY           SKY/WX    TMP DP  RH WIND       PRES   REMARKS
CLE-HOPKINS    FAIR      78  62  57 NE8       30.05S
CLE-LAKEFRONT  FAIR      75  64  68 N7        30.05F
CUY CO. ARPT   MOSUNNY   75  63  64 N9        30.06S
LORAIN-ELYRIA  FAIR      77  62  59 NE6       30.06F
ASHTABULA      FAIR      78  62  57 VRB3      30.06S
AKRON-CANTON   FAIR      82  62  50 VRB5      30.05S
WOOSTER        PTSUNNY   79  62  56 NW5       30.06S
MANSFIELD      FAIR      78  63  59 NE6       30.07S
YOUNGSTOWN     FAIR      79  63  57 NW10      30.05S
$$

OHZ042-051>053-060>062-070>072-077>081-071800-
  SOUTHWEST OHIO

CITY           SKY/WX    TMP DP  RH WIND       PRES   REMARKS
CINC-COVINGTON PTSUNNY   81  74  79 S5        30.04S
CINC-LUNKEN    PTSUNNY   81  73  78 VRB6      30.03S
HAMILTON       FAIR      82  69  64 CALM      30.04S
DAYTON         PTSUNNY   83  65  54 E7        30.05F
WRIGHT-PAT AFB FAIR      83  64  53 NE8       30.01F
DAYTON GENERAL FAIR      82  67  60 E7        30.02F
WILMINGTON     FAIR      82  68  62 VRB5      30.04F
$$

OHZ036-037-039>041-045>050-054>059-063>069-073>076-082>088-071800-
  CENTRAL AND SOUTHEAST OHIO

CITY           SKY/WX    TMP DP  RH WIND       PRES   REMARKS
COLUMBUS       PTSUNNY   83  63  50 NE7       30.02F
OSU AIRPORT    FAIR      84  63  49 VRB7      30.04F
BOLTON FIELD   SUNNY     81  64  57 NE6       30.04F
RICKENBACK AFB FAIR      82  62  50 N5        30.02F
NEWARK         FAIR      84  65  52 E6        30.03F
MARION         FAIR      79  65  62 NE6       30.06F
LANCASTER      FAIR      82  67  60 N5        30.03F
ZANESVILLE     FAIR      82  64  54 CALM      30.03F
NEW PHILLY     FAIR      82  64  54 E6        30.04S
$$



USA.gov is the U.S. government's official web portal to all federal, state and local government web resources and services.